User: anonymous   Login
Location: The Jewett Observatory
(46.7288°N, 117.1525°W)
Time: 10:48:09
(UTC-07:00)
Language:

Cosmos 1633 - Orbit

View from above orbital plane
View from above orbital plane
View from above satellite
View from above satellite

Ground track
Ground track

The orbit data is extracted from the following two-line orbital elements,

1 15592U 85020A   17116.92575954 +.00002681 +00000-0 +95652-4 0  9997
2 15592 082.5408 010.6715 0013850 006.2005 353.9403 15.28345502756180
Epoch (UTC): 26 April 2017 22:13:05
Eccentricity: 0.0013850
inclination: 82.5408°
perigee height: 471 km
apogee height: 490 km
right ascension of ascending node: 10.6715°
argument of perigee: 6.2005°
revolutions per day: 15.28345502
mean anomaly at epoch: 353.9403°
orbit number at epoch: 75618

The dashed part of the orbit path shows where the satellite is in the earth's shadow,  

DLR